Wind_Speed
35 33 33 33 32 31 31 30 29 28 27 27 26 25 24 24 24 23 23 23 24 24 24 24 23 23 22 21 21 20 20 19 18 17 16 16 16 15 15 15 14 13 12
36 35 35 35 35 34 33 33 31 29 28 28 27 26 25 25 24 23 23 23 24 24 25 25 25 24 24 23 23 22 22 22 21 20 19 18 18 17 17 17 16 15 14
39 37 36 36 37 37 36 34 32 32 30 29 27 26 25 25 24 24 23 23 23 23 23 24 24 24 24 24 23 23 23 23 23 23 22 21 20 19 19 19 18 17 16
40 39 37 36 37 37 36 34 33 32 32 30 29 28 26 26 25 24 24 23 22 21 22 22 23 23 22 23 24 24 25 24 24 25 25 24 23 22 21 20 20 19 18
41 39 39 37 36 36 36 34 33 33 32 31 30 29 27 27 26 24 23 23 22 21 21 21 22 22 22 22 22 23 24 24 24 25 26 26 26 25 25 23 22 21 20
42 41 39 38 37 36 35 34 34 33 32 33 33 30 29 28 27 25 24 23 23 22 21 20 21 22 22 22 22 22 23 24 25 25 26 27 28 28 28 27 25 24 23
40 38 37 36 36 35 35 35 35 34 33 33 32 30 30 29 28 26 25 23 22 22 22 21 21 21 21 22 22 22 22 23 23 25 25 27 27 28 29 29 28 27 26
38 37 34 33 34 34 33 35 36 36 34 33 32 31 30 29 28 27 26 25 24 23 23 22 21 21 21 20 21 22 22 22 22 23 24 26 28 29 30 30 29 29 28
37 35 33 31 31 32 33 34 34 35 35 34 33 32 31 30 29 28 28 26 26 25 24 23 21 21 20 20 20 21 21 21 22 22 23 24 25 27 29 31 30 30 30
38 36 34 33 31 31 33 34 34 34 34 33 34 34 32 31 31 29 29 28 27 26 25 23 22 21 20 19 20 20 20 20 20 21 21 22 23 25 25 27 29 29 29
40 37 36 35 34 33 32 33 34 34 34 34 35 35 35 34 33 31 29 30 29 28 27 25 24 22 21 19 18 19 20 20 19 20 21 21 22 23 24 25 26 28 28
40 39 38 38 37 36 35 34 34 36 37 37 36 35 35 36 35 34 32 32 30 29 28 27 25 24 23 21 19 19 19 18 18 18 19 19 20 21 23 23 23 24 26
41 41 39 38 39 38 38 37 36 37 38 38 37 37 36 36 36 35 35 34 32 31 30 29 28 26 25 23 21 20 20 19 17 17 18 18 18 19 21 22 23 23 24
43 44 43 41 41 40 40 39 38 39 39 39 40 40 39 38 37 37 36 35 34 33 32 31 30 29 27 25 24 22 22 21 19 18 17 17 18 18 19 20 21 22 23
46 46 46 45 45 44 43 43 43 43 43 43 43 43 42 41 40 39 39 38 37 36 34 34 33 32 30 28 27 25 23 23 22 20 19 19 18 18 18 19 19 20 21
49 49 49 48 47 47 47 48 47 46 47 48 48 47 46 45 44 43 42 41 40 39 38 37 36 34 33 31 30 28 26 25 24 23 22 21 20 19 19 19 19 19 20
50 50 50 50 50 50 50 50 50 50 51 51 52 51 50 49 48 46 45 45 44 42 41 40 39 37 36 34 33 32 30 28 26 25 25 23 22 21 21 20 20 20 20
50 51 51 51 51 51 52 53 53 54 54 54 55 56 55 54 53 51 49 48 47 46 45 43 41 40 39 37 36 35 34 31 29 28 27 25 24 24 23 22 21 20 20
49 50 50 51 51 51 52 54 55 55 57 57 57 58 58 58 57 56 54 52 50 49 48 47 45 43 42 41 39 38 37 35 33 31 29 28 26 25 24 23 22 21 21
45 45 47 49 49 50 51 53 54 55 57 58 58 59 60 60 59 59 58 56 54 53 51 49 48 47 45 43 42 40 39 38 37 36 33 31 29 28 26 25 25 24 23
41 42 44 44 46 47 48 51 53 54 56 57 58 59 60 61 61 61 60 59 58 57 55 52 50 50 48 46 44 44 41 40 39 38 37 35 33 31 29 28 27 26 25
39 39 40 40 41 43 45 47 50 51 53 54 55 57 59 60 61 61 61 61 60 59 58 56 54 53 51 49 48 46 45 43 41 40 39 38 36 34 33 31 30 29 28
37 36 35 35 35 38 40 42 45 48 50 52 53 55 58 58 59 60 60 61 61 60 59 58 56 55 54 52 50 49 47 46 44 42 41 40 39 37 35 33 32 31 30
31 30 30 30 30 31 33 35 38 42 44 46 48 51 54 56 57 57 58 60 60 60 60 59 57 56 55 55 53 51 49 48 46 45 43 41 40 39 37 35 34 33 32
27 26 25 24 25 26 28 29 31 35 38 40 42 44 47 50 53 54 56 56 58 59 59 58 57 57 56 55 54 52 51 49 47 46 45 43 41 40 38 37 35 34 34
23 21 20 19 19 20 22 24 25 28 31 35 37 40 41 44 47 49 50 52 54 55 56 56 56 56 56 55 53 52 51 49 48 46 45 43 42 41 39 38 37 36 35
Wind_Direction
289 288 285 280 281 279 276 273 270 269 267 263 261 260 258 257 256 253 249 247 245 242 241 241 241 241 240 240 239 239 237 237 236 234 232 231 230 229 228 226 226 226 227
287 284 283 281 280 279 277 274 270 270 267 263 262 261 257 255 254 255 251 246 244 243 240 241 241 240 239 239 239 238 237 238 236 234 233 232 230 230 231 229 229 229 229
288 285 281 277 277 277 278 274 269 268 267 264 261 260 256 255 253 252 250 246 246 244 240 239 239 239 239 239 239 238 237 238 237 236 234 234 233 233 232 231 231 231 231
286 282 281 276 275 275 274 271 268 267 265 264 262 258 254 252 253 251 249 245 243 241 241 238 238 237 237 239 240 238 238 239 240 238 235 235 235 235 232 232 232 232 231
288 282 280 276 273 273 270 269 268 266 264 262 262 257 252 250 251 250 248 243 239 240 240 237 237 237 237 238 239 237 238 240 240 238 237 236 236 236 234 233 233 232 232
286 282 278 275 272 270 268 265 266 263 262 261 259 254 251 249 248 248 245 241 239 239 239 239 238 236 236 237 238 238 238 239 240 240 239 238 238 237 236 236 235 233 234
287 281 278 272 271 269 267 264 263 261 259 260 255 250 248 245 244 244 242 240 238 238 237 238 238 235 235 236 237 238 238 240 241 240 240 239 238 238 237 237 237 236 235
288 284 280 276 269 266 265 264 261 258 256 254 250 248 245 241 241 241 239 238 236 236 236 235 236 236 235 238 237 237 237 240 242 241 240 241 240 240 238 238 238 237 236
288 285 281 276 271 266 264 261 257 255 254 251 246 243 241 239 240 239 238 237 236 234 234 233 233 234 235 237 238 237 237 239 242 242 243 243 242 239 239 237 239 238 237
283 282 279 276 272 266 263 259 255 252 248 244 239 239 239 238 238 238 237 236 236 234 232 231 231 232 234 235 236 236 237 241 242 240 242 242 242 240 239 239 239 238 237
282 281 279 276 272 267 263 260 254 249 242 240 240 239 237 237 237 236 235 234 234 233 231 231 231 231 232 234 236 236 237 238 241 239 241 241 240 239 238 239 240 239 238
280 278 276 274 273 268 264 262 255 249 243 241 240 237 234 235 237 235 232 232 232 231 231 231 231 232 231 233 234 234 234 235 236 237 238 239 239 237 237 237 239 239 238
279 277 275 272 271 268 263 260 256 252 246 241 239 236 234 234 234 233 233 233 232 231 232 232 232 232 231 231 234 234 234 234 234 234 235 238 240 239 239 238 239 240 240
278 276 274 272 268 265 262 258 254 251 248 245 242 237 234 233 234 233 233 233 233 232 232 233 233 233 232 231 233 233 233 234 236 235 236 239 240 241 241 240 241 242 243
278 275 273 270 267 264 260 257 254 250 247 246 243 239 236 234 234 235 234 233 233 233 233 233 233 233 233 232 233 234 234 234 235 236 238 240 241 242 242 242 244 245 245
279 275 271 268 265 263 259 255 252 249 247 246 244 241 238 236 235 234 234 233 233 233 234 234 234 234 233 233 233 234 236 235 235 236 237 239 241 242 242 245 246 248 249
279 276 271 266 263 260 258 254 252 251 248 245 243 242 240 238 236 235 234 235 234 234 234 235 236 236 235 234 235 235 235 237 238 238 238 240 242 244 246 247 249 251 252
278 275 271 267 262 258 256 254 252 250 248 246 243 241 240 240 238 236 235 235 235 235 235 236 237 237 237 235 235 236 236 237 239 240 239 240 242 243 246 248 250 252 254
279 275 271 267 262 259 256 253 251 248 246 245 244 242 240 240 239 237 236 236 235 235 236 236 236 237 238 237 236 236 237 238 239 240 240 242 243 244 246 248 250 253 255
282 277 272 267 262 259 255 252 250 247 245 245 244 242 241 240 240 239 237 236 236 236 236 236 237 237 237 237 237 237 237 238 238 239 240 241 243 244 245 248 251 252 256
284 280 275 269 263 258 254 251 248 247 245 244 243 242 241 240 240 240 239 238 237 237 236 237 237 237 237 237 237 238 238 238 238 239 239 240 242 244 245 248 251 252 255
287 284 278 271 264 258 254 251 247 247 245 244 243 242 241 241 240 240 239 238 237 237 237 237 237 238 238 238 238 238 239 239 238 238 239 239 241 243 245 247 249 252 254
292 287 280 272 265 258 255 252 248 247 245 244 243 242 241 240 240 239 238 238 238 237 237 237 238 239 239 239 239 239 240 240 239 238 239 240 241 243 244 247 249 251 253
296 290 283 274 264 257 253 251 249 246 244 243 242 241 241 240 239 238 237 237 237 237 237 237 239 239 239 239 239 239 240 240 240 240 240 241 241 242 244 246 248 251 253
301 296 286 276 267 258 254 252 249 246 242 240 239 239 239 239 239 237 236 236 236 236 236 236 236 238 239 238 239 239 240 241 241 241 241 241 241 241 243 245 248 251 253
307 303 293 280 269 258 254 251 248 245 240 237 236 236 236 236 237 237 236 235 235 235 235 235 235 236 236 237 238 239 239 240 240 240 239 240 240 240 242 244 247 250 252
Height
5855 5854 5853 5854 5853 5853 5854 5854 5855 5856 5856 5857 5857 5859 5860 5862 5863 5864 5866 5868 5869 5871 5874 5876 5878 5880 5883 5885 5888 5890 5893 5895 5897 5900 5902 5904 5906 5908 5911 5913 5915 5917 5919
5848 5847 5846 5845 5845 5845 5846 5847 5848 5849 5849 5850 5851 5854 5855 5857 5858 5859 5861 5862 5863 5865 5868 5871 5873 5876 5878 5881 5883 5886 5889 5891 5894 5896 5899 5901 5904 5906 5908 5910 5913 5915 5917
5840 5838 5837 5837 5838 5837 5838 5839 5840 5842 5843 5844 5846 5848 5850 5851 5853 5854 5855 5857 5858 5860 5863 5865 5868 5870 5873 5876 5878 5881 5884 5887 5890 5892 5895 5898 5900 5903 5905 5907 5910 5912 5914
5830 5829 5829 5828 5829 5829 5830 5831 5832 5834 5836 5837 5839 5841 5843 5846 5847 5849 5850 5852 5854 5856 5858 5860 5863 5865 5868 5871 5873 5876 5879 5882 5885 5888 5891 5894 5897 5899 5902 5904 5906 5909 5911
5822 5820 5820 5819 5820 5821 5821 5822 5824 5826 5828 5830 5832 5834 5837 5839 5841 5843 5845 5847 5849 5851 5853 5855 5858 5860 5863 5866 5868 5871 5874 5877 5880 5883 5886 5889 5892 5895 5898 5900 5903 5905 5908
5813 5811 5811 5811 5811 5812 5813 5814 5816 5818 5820 5822 5824 5827 5830 5833 5835 5838 5840 5842 5844 5846 5849 5851 5853 5855 5858 5860 5863 5866 5869 5872 5875 5877 5880 5883 5887 5890 5893 5896 5899 5902 5904
5804 5803 5801 5801 5802 5803 5804 5806 5808 5810 5812 5814 5817 5820 5823 5826 5829 5832 5834 5837 5839 5842 5844 5846 5848 5850 5853 5856 5858 5861 5864 5867 5869 5872 5875 5878 5881 5884 5887 5891 5894 5897 5900
5796 5795 5794 5793 5793 5795 5796 5797 5799 5802 5804 5806 5809 5813 5816 5819 5822 5825 5828 5831 5834 5836 5839 5841 5843 5846 5848 5851 5853 5856 5859 5861 5864 5866 5869 5872 5875 5878 5881 5885 5888 5892 5895
5788 5787 5785 5785 5785 5786 5787 5788 5790 5793 5796 5798 5801 5805 5808 5812 5816 5819 5822 5825 5828 5831 5833 5836 5839 5841 5844 5846 5849 5851 5854 5856 5859 5861 5864 5866 5869 5872 5875 5879 5882 5886 5889
5780 5779 5778 5778 5777 5778 5778 5779 5780 5784 5786 5790 5793 5797 5801 5805 5809 5813 5816 5819 5822 5825 5828 5831 5834 5837 5839 5842 5844 5846 5849 5851 5854 5857 5859 5861 5864 5867 5870 5873 5876 5879 5883
5770 5769 5769 5769 5769 5769 5770 5771 5772 5775 5778 5781 5785 5788 5793 5797 5801 5805 5809 5813 5816 5819 5822 5826 5829 5832 5834 5837 5840 5842 5844 5846 5849 5852 5854 5856 5859 5862 5865 5868 5871 5874 5877
5759 5758 5759 5759 5759 5760 5761 5763 5764 5767 5769 5773 5776 5780 5784 5789 5792 5797 5801 5805 5809 5812 5816 5819 5823 5826 5829 5832 5835 5837 5839 5842 5844 5847 5850 5852 5854 5857 5860 5863 5865 5868 5871
5748 5747 5748 5749 5749 5750 5751 5753 5755 5758 5760 5764 5767 5771 5775 5779 5784 5789 5793 5797 5801 5806 5810 5813 5817 5820 5824 5827 5830 5832 5835 5838 5840 5843 5845 5848 5850 5853 5855 5858 5861 5863 5866
5736 5735 5736 5737 5738 5739 5740 5742 5745 5748 5751 5755 5758 5762 5766 5770 5775 5780 5785 5789 5794 5799 5803 5807 5810 5814 5818 5822 5825 5827 5830 5833 5836 5838 5841 5844 5846 5849 5851 5853 5856 5858 5861
5721 5721 5722 5723 5724 5726 5728 5730 5733 5737 5740 5744 5748 5752 5756 5760 5765 5770 5776 5781 5786 5791 5795 5799 5803 5807 5811 5815 5819 5822 5825 5828 5831 5834 5837 5839 5842 5844 5847 5849 5851 5854 5856
5705 5705 5706 5708 5709 5711 5713 5716 5720 5723 5728 5731 5735 5740 5745 5750 5755 5760 5766 5771 5776 5781 5786 5791 5795 5800 5804 5808 5812 5816 5819 5822 5825 5829 5832 5835 5837 5840 5842 5844 5847 5849 5851
5688 5687 5688 5690 5692 5695 5697 5700 5704 5708 5713 5717 5722 5727 5732 5738 5743 5749 5755 5761 5766 5771 5776 5782 5786 5792 5796 5801 5805 5809 5813 5816 5820 5823 5826 5829 5832 5835 5837 5839 5842 5844 5846
5671 5669 5670 5671 5673 5676 5680 5684 5687 5692 5696 5701 5707 5712 5719 5724 5730 5736 5743 5749 5755 5761 5766 5772 5777 5782 5787 5792 5797 5801 5806 5810 5813 5817 5820 5823 5826 5829 5832 5834 5837 5839 5841
5653 5651 5651 5652 5654 5658 5661 5665 5669 5674 5679 5685 5691 5697 5703 5709 5715 5722 5729 5736 5742 5749 5755 5761 5767 5772 5777 5783 5788 5793 5798 5802 5806 5810 5814 5817 5820 5823 5826 5829 5831 5834 5836
5636 5634 5633 5634 5636 5639 5643 5646 5651 5656 5661 5667 5673 5680 5687 5694 5700 5707 5714 5721 5729 5735 5742 5749 5756 5761 5767 5773 5778 5784 5789 5794 5798 5803 5807 5811 5814 5817 5820 5823 5826 5828 5830
5620 5618 5616 5616 5618 5621 5624 5628 5633 5638 5644 5650 5656 5662 5669 5677 5684 5691 5698 5706 5714 5721 5728 5736 5743 5750 5756 5762 5768 5774 5779 5784 5789 5794 5799 5803 5807 5811 5814 5817 5820 5822 5824
5605 5602 5600 5600 5601 5604 5607 5611 5615 5621 5627 5633 5639 5645 5652 5659 5667 5675 5683 5691 5699 5707 5715 5722 5730 5737 5744 5751 5757 5762 5769 5775 5780 5785 5790 5795 5799 5803 5807 5810 5813 5815 5818
5592 5588 5586 5586 5587 5589 5592 5596 5600 5605 5611 5617 5623 5629 5635 5643 5651 5659 5667 5675 5684 5692 5700 5708 5716 5724 5731 5739 5745 5751 5758 5763 5770 5775 5780 5786 5791 5795 5799 5802 5805 5808 5811
5580 5577 5574 5574 5574 5576 5579 5583 5586 5591 5596 5602 5608 5614 5621 5628 5635 5643 5652 5660 5669 5678 5686 5695 5704 5711 5718 5725 5732 5740 5746 5752 5759 5765 5771 5776 5782 5786 5790 5794 5797 5801 5804
5571 5568 5565 5564 5565 5567 5569 5572 5576 5580 5585 5590 5596 5601 5608 5614 5622 5630 5638 5647 5655 5662 5670 5680 5689 5696 5704 5712 5719 5727 5734 5741 5748 5754 5760 5766 5772 5777 5782 5786 5789 5792 5796
5564 5561 5559 5558 5558 5560 5562 5564 5567 5571 5575 5580 5586 5591 5597 5603 5608 5616 5624 5632 5640 5648 5657 5666 5675 5683 5691 5699 5707 5715 5723 5730 5736 5743 5750 5756 5761 5767 5772 5777 5781 5784 5787